[[{"header":{"parameterUnit":"m.s-1","parameterCategory":1,"la1":30.2991,"la2":30.254,"lo1":-89.0895,"lo2":-89.0444,"dy":0.0017,"dx":0.0017,"nx":28,"ny":28,"refTime":"2025-09-02T21:00:00:Z","depth":0,"parameterNumber":2,"parameterNumberName":"U-component_of_WINDS"},"data":[0,0,0,0,0,0,0,0,0,0,0,0,0,0,0,0,0,0,0,0,0,0,0,0,0,0,0,0,0,0,0,0,0,0,0,0,0,0,0,0,0,0,0,0,0,0,0,0,0,0,0,0,0,0,0,0,0,0,-1.1895,-1.1895,0,-1.1854,-1.1853,-1.1853,-1.1812,-1.1812,-1.1811,-1.1811,-1.1767,-1.1766,-1.1766,0,0,0,0,0,0,0,0,0,0,0,0,0,-1.1941,-1.194,-1.1896,-1.1895,-1.1894,-1.1854,-1.1853,-1.1853,-1.1812,-1.1812,-1.1811,-1.181,-1.1767,-1.1766,-1.1766,0,0,0,0,0,0,0,0,0,0,0,0,0,-1.1912,-1.194,-1.1896,-1.1869,-1.1867,-1.1854,-1.1853,-1.1852,-1.1812,-1.1812,-1.1811,-1.181,-1.1767,-1.1766,-1.1765,-1.1775,0,0,-1.1762,-1.1762,0,0,0,0,0,0,0,0,-1.1914,-1.1911,-1.1874,-1.1871,-1.1868,-1.1837,-1.1853,-1.1826,-1.1813,-1.1833,-1.1811,-1.181,-1.1791,-1.1788,-1.1782,-1.1773,-1.1771,-1.1762,-1.1762,-1.1761,-1.1761,0,0,0,0,0,0,0,-1.1916,-1.1912,-1.1879,-1.1873,-1.187,-1.186,-1.1855,-1.1848,-1.1817,-1.1831,-1.1828,-1.1824,-1.1789,-1.1783,-1.178,-1.177,-1.1762,-1.1761,-1.1761,-1.176,-1.1768,-1.1769,0,0,0,0,0,0,-1.1922,-1.1914,-1.188,-1.1878,-1.189,-1.186,-1.1854,-1.1848,-1.1817,-1.1811,-1.1825,-1.1822,-1.1785,-1.1782,-1.1779,-1.1788,-1.1761,-1.176,-1.176,-1.1767,-1.1768,-1.1769,0,0,0,0,0,0,-1.1923,-1.1919,-1.1882,-1.1895,-1.189,-1.186,-1.1853,-1.1848,-1.1841,-1.1812,-1.1806,-1.1824,-1.1784,-1.178,-1.1776,-1.1786,-1.176,-1.1759,-1.1766,-1.1768,-1.1769,-1.1807,0,0,0,0,0,0,-1.1925,-1.192,-1.1923,-1.1895,-1.1889,-1.188,-1.1854,-1.1847,-1.184,-1.1836,-1.1809,-1.1804,-1.1783,-1.1778,-1.1775,-1.1784,-1.1758,-1.1765,-1.1767,-1.1768,-1.1805,-1.1809,-1.1814,0,0,0,0,0,-1.1926,-1.1935,-1.1923,-1.1919,-1.1892,-1.1881,-1.1877,-1.1853,-1.1841,-1.1843,-1.1825,-1.1805,-1.1786,-1.1778,-1.1775,-1.1783,-1.1765,-1.1766,-1.1768,-1.1803,-1.1809,-1.1813,0,0,0,0,0,0,-1.1963,-1.1931,-1.1917,-1.1917,-1.1902,-1.1874,-1.1877,-1.186,-1.1847,-1.1845,-1.1815,-1.1809,-1.1809,-1.1796,-1.1788,-1.1792,-1.1773,-1.1774,-1.18,-1.1805,-1.181,-1.1812,-1.1757,0,0,0,0,0,-1.1972,-1.1965,-1.1937,-1.194,-1.1933,-1.1907,-1.1901,-1.1884,-1.1867,-1.186,-1.1841,-1.1825,-1.1816,-1.181,-1.1799,-1.1803,-1.1797,-1.1808,-1.1812,-1.1816,-1.1817,-1.1819,-1.1824,-1.1775,-1.1775,-1.1775,0,0,-1.1988,-1.197,-1.1967,-1.1947,-1.1933,-1.1927,-1.1901,-1.1896,-1.1891,-1.1859,-1.1854,-1.184,-1.1821,-1.1821,-1.1821,-1.181,-1.1829,-1.1818,-1.1821,-1.182,-1.1822,-1.1826,-1.183,-1.1777,-1.1776,-1.1776,0,0,-1.2016,-1.2001,-1.2002,-1.199,-1.197,-1.1952,-1.1953,-1.1927,-1.1917,-1.1912,-1.1888,-1.1883,-1.1867,-1.1854,-1.1846,-1.1871,-1.1853,-1.1869,-1.1891,-1.1894,-1.1898,-1.1901,-1.191,-1.1914,-1.187,-1.187,-1.187,0,-1.2039,-1.203,-1.2005,-1.2002,-1.1994,-1.1965,-1.1966,-1.1955,-1.1933,-1.1928,-1.1917,-1.1897,-1.1882,-1.188,-1.1886,-1.188,-1.188,-1.1871,-1.1899,-1.1902,-1.1905,-1.1914,-1.1917,-1.1872,-1.1872,-1.1872,-1.1872,0,-1.2059,-1.2053,-1.2057,-1.2037,-1.2029,-1.2028,-1.2004,-1.1999,-1.1984,-1.1968,-1.1964,-1.1945,-1.1931,-1.1929,-1.1914,-1.1925,-1.192,-1.1905,-1.1885,-1.1912,-1.192,-1.1923,-1.1875,-1.1875,-1.1874,-1.1873,0,0,-1.2108,-1.2075,-1.2077,-1.2068,-1.2045,-1.204,-1.2038,-1.2025,-1.2022,-1.2008,-1.2006,-1.1995,-1.1981,-1.1971,-1.1954,-1.1957,-1.1979,-1.1941,-1.194,-1.1949,-1.1992,-1.2004,-1.2008,-1.1967,-1.1968,-1.1968,-1.1994,0,-1.2131,-1.2126,-1.2105,-1.2107,-1.2101,-1.2075,-1.2074,-1.206,-1.2046,-1.2039,-1.2023,-1.2015,-1.1997,-1.1992,-1.1993,-1.1976,-1.1987,-1.1974,-1.1965,-1.1965,-1.1971,-1.2012,-1.2024,-1.2049,-1.1997,-1.1997,-1.1998,0,-1.2158,-1.2147,-1.2148,-1.2126,-1.2123,-1.2122,-1.2109,-1.2104,-1.2088,-1.2077,-1.2068,-1.2049,-1.2047,-1.2029,-1.2026,-1.2017,-1.2013,-1.2004,-1.2004,-1.2002,-1.1983,-1.2011,-1.2056,-1.206,-1.2002,-1.2002,-1.2001,0,-1.2193,-1.2179,-1.2178,-1.2171,-1.2146,-1.2146,-1.2135,-1.2119,-1.2113,-1.2102,-1.2098,-1.2086,-1.208,-1.2072,-1.2051,-1.204,-1.2051,-1.2031,-1.2042,-1.2043,-1.2045,-1.2045,-1.209,-1.2042,-1.2042,-1.2042,-1.2042,0,-1.2222,-1.2224,-1.2194,-1.2193,-1.2195,-1.2171,-1.2173,-1.216,-1.2146,-1.2143,-1.212,-1.2118,-1.209,-1.2085,-1.2069,-1.2069,-1.2066,-1.2058,-1.2054,-1.206,-1.2061,-1.2056,-1.2054,-1.2043,-1.2043,-1.2043,-1.2043,0,-1.2261,-1.2241,-1.2239,-1.2215,-1.221,-1.2212,-1.2192,-1.2191,-1.2176,-1.2173,-1.2171,-1.2147,-1.214,-1.2119,-1.2106,-1.2095,-1.21,-1.2092,-1.2106,-1.2103,-1.2116,-1.2115,-1.2159,-1.2163,-1.2113,-1.2114,-1.2114,0,-1.2281,-1.2282,-1.2259,-1.2256,-1.2246,-1.2241,-1.2235,-1.2212,-1.2207,-1.219,-1.2191,-1.2183,-1.2174,-1.2164,-1.2146,-1.2137,-1.2128,-1.2144,-1.2126,-1.2133,-1.2129,-1.2129,-1.2129,-1.2148,-1.2149,-1.2149,-1.215,0,-1.2318,-1.2308,-1.23,-1.229,-1.2284,-1.2274,-1.2263,-1.2262,-1.2236,-1.2232,-1.2225,-1.2219,-1.2207,-1.2198,-1.2187,-1.2176,-1.2159,-1.2156,-1.2158,-1.2164,-1.2172,-1.2168,-1.2116,-1.2154,-1.2154,-1.2153,-1.2153,-1.2153,-1.2348,-1.2348,-1.2332,-1.2325,-1.2315,-1.2306,-1.2304,-1.2289,-1.2283,-1.2272,-1.2259,-1.2253,-1.2239,-1.2221,-1.2212,-1.2208,-1.2199,-1.2202,-1.2202,-1.2204,-1.2207,-1.2173,-1.2206,-1.2206,-1.2206,-1.2205,-1.2205,0,-1.2383,-1.2373,-1.2366,-1.2353,-1.2347,-1.2332,-1.232,-1.2317,-1.2312,-1.2301,-1.2293,-1.2286,-1.2278,-1.2261,-1.2252,-1.2252,-1.2244,-1.225,-1.225,-1.2248,-1.2215,-1.2215,-1.2257,-1.2257,-1.2257,-1.2257,-1.2257,-1.2257,-1.2401,-1.2401,-1.239,-1.2385,-1.2374,-1.2369,-1.2364,-1.2355,-1.2346,-1.2339,-1.2333,-1.2321,-1.2307,-1.2298,-1.2291,-1.2286,-1.2283,-1.2292,-1.2285,-1.2255,-1.225,-1.2245,-1.2244,-1.2292,-1.2292,-1.2318,-1.2318,-1.2318]},{"header":{"parameterUnit":"m.s-1","parameterCategory":1,"la1":30.2991,"la2":30.254,"lo1":-89.0895,"lo2":-89.0444,"dy":0.0017,"dx":0.0017,"nx":28,"ny":28,"refTime":"2025-09-02T21:00:00:Z","depth":0,"parameterNumber":3,"parameterNumberName":"V-component_of_WINDS"},"data":[0,0,0,0,0,0,0,0,0,0,0,0,0,0,0,0,0,0,0,0,0,0,0,0,0,0,0,0,0,0,0,0,0,0,0,0,0,0,0,0,0,0,0,0,0,0,0,0,0,0,0,0,0,0,0,0,0,0,3.5953,3.5953,0,3.5942,3.5942,3.5942,3.5982,3.5983,3.5984,3.5986,3.5969,3.5967,3.5965,0,0,0,0,0,0,0,0,0,0,0,0,0,3.6002,3.6001,3.5953,3.5953,3.5952,3.5942,3.5942,3.5942,3.5982,3.5983,3.5985,3.5986,3.5969,3.5967,3.5965,0,0,0,0,0,0,0,0,0,0,0,0,0,3.5984,3.6,3.5953,3.5971,3.5973,3.5942,3.5942,3.5942,3.5981,3.5983,3.5985,3.5987,3.597,3.5967,3.5965,3.5914,0,0,3.5958,3.5957,0,0,0,0,0,0,0,0,3.5985,3.5983,3.5969,3.597,3.5972,3.5965,3.5953,3.5932,3.5981,3.5978,3.5986,3.5988,3.5966,3.5964,3.5958,3.5913,3.5913,3.5958,3.5956,3.5955,3.5954,0,0,0,0,0,0,0,3.5987,3.5983,3.5948,3.5968,3.597,3.5978,3.5978,3.5949,3.5961,3.5978,3.5981,3.598,3.5967,3.596,3.5957,3.5912,3.5958,3.5956,3.5954,3.5953,3.5824,3.5822,0,0,0,0,0,0,3.5986,3.5984,3.5949,3.5948,3.5983,3.5976,3.5975,3.5965,3.5962,3.5963,3.5978,3.5982,3.5963,3.596,3.5957,3.5895,3.5955,3.5953,3.5952,3.5826,3.5823,3.5821,0,0,0,0,0,0,3.5987,3.5983,3.5949,3.5967,3.5963,3.5973,3.5962,3.5964,3.5957,3.5962,3.5964,3.5969,3.5964,3.596,3.5924,3.5895,3.5952,3.595,3.5828,3.5825,3.5822,3.5773,0,0,0,0,0,0,3.5988,3.5983,3.5965,3.5966,3.5962,3.5918,3.596,3.5963,3.5954,3.5958,3.5954,3.5955,3.5965,3.5928,3.5922,3.5893,3.5948,3.5831,3.5827,3.5823,3.5777,3.5769,3.5761,0,0,0,0,0,3.599,3.595,3.5964,3.5959,3.594,3.5917,3.5914,3.5929,3.5952,3.5932,3.5935,3.5955,3.59,3.5924,3.5918,3.5888,3.5833,3.5828,3.5823,3.5781,3.577,3.5762,0,0,0,0,0,0,3.5943,3.5951,3.5966,3.5926,3.5921,3.5924,3.59,3.5918,3.5904,3.5908,3.5925,3.5924,3.5884,3.5883,3.5909,3.5837,3.587,3.5864,3.5839,3.583,3.5822,3.5822,3.5946,0,0,0,0,0,3.5929,3.5911,3.5918,3.5882,3.5879,3.589,3.588,3.5892,3.5886,3.5884,3.5884,3.5876,3.5857,3.5843,3.5826,3.5778,3.5776,3.5754,3.5746,3.574,3.5733,3.5706,3.5695,3.5806,3.5806,3.5806,0,0,3.5898,3.59,3.5887,3.5873,3.587,3.5849,3.5888,3.5864,3.5848,3.5879,3.5846,3.5846,3.5837,3.5795,3.5776,3.5792,3.5703,3.5734,3.5729,3.5726,3.57,3.5689,3.568,3.5803,3.5804,3.5804,0,0,3.583,3.5831,3.58,3.5797,3.5793,3.5801,3.5794,3.5794,3.5796,3.5763,3.5786,3.5766,3.5733,3.5726,3.5718,3.5648,3.5664,3.5642,3.5599,3.5572,3.5563,3.5555,3.5528,3.5518,3.5636,3.5636,3.5636,0,3.5791,3.5762,3.5782,3.5757,3.5749,3.5779,3.5746,3.5742,3.5731,3.5724,3.5744,3.5702,3.5699,3.5654,3.5637,3.5631,3.5621,3.5641,3.5563,3.5555,3.5548,3.5522,3.5512,3.5633,3.5633,3.5633,3.5634,0,3.5714,3.5693,3.5669,3.566,3.5649,3.5621,3.5634,3.5621,3.5633,3.5638,3.5603,3.5601,3.5583,3.5574,3.5585,3.553,3.554,3.5561,3.5593,3.5535,3.551,3.5501,3.5629,3.563,3.5631,3.5631,0,0,3.5615,3.5618,3.5608,3.5604,3.5602,3.5585,3.5557,3.5542,3.5529,3.5521,3.5496,3.5468,3.5487,3.5478,3.5489,3.5466,3.5407,3.549,3.549,3.5472,3.5343,3.5325,3.5313,3.542,3.5418,3.5416,3.5343,0,3.5546,3.5501,3.5517,3.5469,3.5449,3.5477,3.5453,3.5447,3.5451,3.5433,3.5437,3.5416,3.5445,3.5439,3.5417,3.5419,3.5381,3.5425,3.5393,3.5392,3.5392,3.5301,3.5282,3.5213,3.5334,3.5332,3.5331,0,3.5461,3.5451,3.5401,3.5401,3.5394,3.5371,3.5358,3.5341,3.5335,3.534,3.533,3.5346,3.5316,3.5351,3.5308,3.5338,3.5326,3.5325,3.5322,3.5318,3.5356,3.5291,3.5192,3.518,3.5316,3.5318,3.5319,0,3.539,3.5364,3.5331,3.5327,3.5327,3.5311,3.531,3.5306,3.5295,3.5283,3.5275,3.5259,3.5249,3.5235,3.5245,3.527,3.52,3.5237,3.52,3.52,3.5182,3.5183,3.5076,3.5179,3.5179,3.5179,3.518,0,3.5311,3.5278,3.5299,3.5278,3.5242,3.5262,3.5225,3.5227,3.5223,3.5201,3.5225,3.5203,3.522,3.5199,3.5207,3.5169,3.5165,3.5166,3.5168,3.5162,3.5162,3.5153,3.5157,3.5177,3.5177,3.5178,3.5178,0,3.5225,3.5238,3.5203,3.5207,3.5207,3.518,3.5182,3.5162,3.5169,3.514,3.5135,3.5144,3.5121,3.513,3.5106,3.5111,3.5062,3.5071,3.5064,3.5065,3.5028,3.503,3.491,3.4894,3.5009,3.5008,3.5007,0,3.5172,3.5148,3.515,3.5138,3.5136,3.5117,3.5106,3.5124,3.5111,3.5103,3.5082,3.5062,3.5046,3.5007,3.501,3.4991,3.4998,3.4958,3.4995,3.499,3.4994,3.4995,3.4991,3.4949,3.4948,3.4946,3.4946,0,3.5076,3.5084,3.5069,3.5056,3.5043,3.5033,3.5025,3.5013,3.5031,3.5015,3.4993,3.4981,3.4956,3.4934,3.4917,3.4914,3.4931,3.4934,3.4924,3.4917,3.4913,3.4912,3.504,3.4936,3.4937,3.4938,3.4938,3.4939,3.5004,3.4983,3.4981,3.4963,3.4959,3.4951,3.4932,3.4936,3.4919,3.4901,3.4912,3.4885,3.4879,3.4858,3.4852,3.4829,3.4845,3.4831,3.4827,3.4823,3.4817,3.4919,3.4827,3.4827,3.4827,3.4827,3.4828,0,3.4907,3.4907,3.4891,3.4879,3.4865,3.4886,3.4878,3.4863,3.484,3.4833,3.4818,3.4791,3.477,3.4771,3.4751,3.4733,3.474,3.4727,3.4727,3.4725,3.4806,3.4815,3.4721,3.4721,3.4721,3.4721,3.4721,3.4721,3.4855,3.4821,3.4828,3.4791,3.4791,3.4767,3.476,3.4751,3.4746,3.4716,3.4699,3.4702,3.4697,3.4677,3.4658,3.4659,3.4649,3.4632,3.4635,3.4709,3.472,3.473,3.4739,3.463,3.463,3.4556,3.4556,3.4555]}]]